sat.trackr.live / text

‹ back to catalog

ONEWEB-0123

NORAD 47269 · 2020-100M

PAYLOAD ACTIVE UNKNOWN

§ Identity

Operator
Country
UK
Launch date
2020-12-18
Launch site
VOSTO
Launch vehicle
Mass (kg)
RCS (m²)

Purposes: comms

External: N2YO · Heavens-Above · Gunter

§ Orbital elements

Epoch: 2026-09-19T23:16:14.506176Z

Period
109.72 min
Inclination
87.8983°
Eccentricity
0.0001900
Mean motion
13.12441981 rev/d
Perigee alt
1,212.3 km
Apogee alt
1,215.2 km
Semi-major
7,591.9 km
B*
2.4812e-4
RAAN
331.8465°
Arg perigee
101.0525°
Mean anomaly
259.0818°
Rev number
27,712

§ Raw data

ONEWEB-01231 47269U 20100M   26262.96961234  .00000102  00000+0  24812-3 0  99912 47269  87.8983 331.8465 0001900 101.0525 259.0818 13.12441981277123

JSON: /api/v1/satellites/47269 · /tle

For live sub-satellite position, see the globe view (requires WebGL).

§ Visibility from observer

Set your observer location to see the next 7 days of passes ≥ 10°. The values pass through the URL so the page stays shareable.

No JS? Fill the form by hand. The geolocation button needs JavaScript.